THORAD DELTA 1 DEB, 8593

Orbit data source: Space-Track

THORAD DELTA 1 DEB, 8593 is space debris in SSO originally from a launch on Fri, 15 Nov 1974 UTC launched from the Air Force Western Test Range (AFWTR). Debris objects in space refer to the collection of defunct objects orbiting the Earth. Examples of debris include non-operational satellites, rocket bodies, and fragments generated from explosions, collisions, or faulty payload assembly.

Loading next visibility...
Identifier
8593, 1974-089DG
Orbit
SSO
Country
Flag of USUS
Related business
Manufacturer
Unknown
Mission
Spacecraft
Bus & Motor
Unknown
Mass
Unknown
Launch date (UTC)
1974-11-15 (51 years ago)
Launch vehicle
Unknown
Launch site
Air Force Western Test Range (AFWTR)
Object type
Payload
Rocket body
Debris
Shape & HBR
Unknown shape, 0.1 m
Radar Cross Section
Small (<0.1 m²)

Expand to show TLE details & history
Last TLE update: 13 hours ago

TLE from 13 hours ago
0 THORAD DELTA 1 DEB
1 08593U 74089DG  26062.80026764 -.00000039  00000-0  44167-4 0  9991
2 08593 101.9029  11.0116 0223613 337.3796  93.2185 12.71143039378708
Epoch: 2026-03-03T19:12Z
TLE epoch observation values (Epoch: 2026-03-03T19:12:23.124Z)
Latitude
69.54784°
Longitude
-112.88198°
Altitude
1,402.745 km
Speed
7.159 km/s
True Right ascension
22h 27m 09s
True Declination
69° 26' 40"
Sunlit
Object was in daylight at epoch
Visualization orbit readout
Latitude
Unknown
Longitude
Unknown
Altitude
Unknown
Speed
Unknown
Apparent Right ascension
Unknown
Apparent Declination
Unknown
Sunlit
N/A
Visualization observer readout
Local Sidereal Time
11:33:33
Azimuth
Unknown
Elevation
Unknown
Doppler factor
Unknown
Orbital elements
Apogee altitude
1,548.18 km
Perigee altitude
1,201.448 km
Semi-major axis
7,752.951 km
Eccentricity
0.02236
Inclination
101.9029°
RAAN
11.0116°
Arg. of periapsis
337.3796°
True anomaly
95.77202°
Mean anomaly
93.2185°
Eccentric anomaly
94.49577°
Mean motion
3.17938 °/min
Orbital period
113.23 mins
BSTAR
0.000044167

Documentation

Showing up to 5 results
|